• In Uzbekistan
  • List of Countries
  • For 7 days
  • Water Temperature
  • Satellite Maps
  • Weather Map
  • Weather Widgets
  • user-avatar
    Login

    Hourly Weather Adelaide

    Today, 19 November, Sunday

    Time Temperature Precipitation Wind Pressure Humidity
    00:00 +17°C° 0 mm 3 mps 757 mmHg 85%
    01:00 +17°C° 0 mm 3 mps 757 mmHg 83%
    02:00 +17°C° 0 mm 3 mps 756 mmHg 82%
    03:00 +17°C° 0 mm 3 mps 756 mmHg 81%
    04:00 +18°C° 0 mm 3 mps 757 mmHg 75%
    05:00 +19°C° 0 mm 3 mps 757 mmHg 70%
    06:00 +20°C° 0 mm 3 mps 757 mmHg 64%
    07:00 +22°C° 0 mm 3 mps 757 mmHg 57%
    08:00 +26°C° 0 mm 4 mps 757 mmHg 49%
    09:00 +28°C° 0 mm 4 mps 757 mmHg 42%
    10:00 +29°C° 0 mm 4 mps 757 mmHg 38%
    11:00 +31°C° 0 mm 3 mps 757 mmHg 35%
    12:00 +33°C° 0 mm 3 mps 757 mmHg 31%
    13:00 +33°C° 0 mm 3 mps 756 mmHg 30%
    14:00 +34°C° 0 mm 4 mps 756 mmHg 30%
    15:00 +34°C° 0 mm 4 mps 755 mmHg 29%
    16:00 +33°C° 0 mm 4 mps 755 mmHg 32%
    17:00 +32°C° 0 mm 4 mps 755 mmHg 34%
    18:00 +30°C° 0 mm 5 mps 755 mmHg 37%
    19:00 +29°C° 0 mm 5 mps 756 mmHg 38%
    20:00 +28°C° 0 mm 5 mps 756 mmHg 38%
    21:00 +27°C° 0 mm 6 mps 756 mmHg 39%
    22:00 +27°C° 0 mm 6 mps 756 mmHg 40%
    23:00 +27°C° 0 mm 6 mps 756 mmHg 40%

    Tomorrow, 20 November, Monday

    Time Temperature Precipitation Wind Pressure Humidity
    00:00 +26°C° 0 mm 6 mps 756 mmHg 41%
    01:00 +26°C° 0 mm 6 mps 756 mmHg 43%
    02:00 +26°C° 0 mm 6 mps 756 mmHg 45%
    03:00 +26°C° 0 mm 6 mps 756 mmHg 47%
    04:00 +26°C° 0 mm 6 mps 757 mmHg 47%
    05:00 +26°C° 0 mm 6 mps 757 mmHg 47%
    06:00 +26°C° 0 mm 6 mps 758 mmHg 47%
    07:00 +28°C° 0 mm 6 mps 758 mmHg 43%
    08:00 +30°C° 0 mm 7 mps 758 mmHg 39%
    09:00 +32°C° 0 mm 7 mps 758 mmHg 35%
    10:00 +33°C° 0 mm 6 mps 758 mmHg 33%
    11:00 +34°C° 0 mm 6 mps 757 mmHg 30%
    12:00 +35°C° 0 mm 6 mps 756 mmHg 27%
    13:00 +35°C° 0 mm 5 mps 756 mmHg 26%
    14:00 +36°C° 0 mm 5 mps 756 mmHg 25%
    15:00 +36°C° 0 mm 5 mps 755 mmHg 24%
    16:00 +35°C° 0 mm 4 mps 755 mmHg 25%
    17:00 +34°C° 0 mm 4 mps 755 mmHg 26%
    18:00 +33°C° 0 mm 3 mps 755 mmHg 28%
    19:00 +32°C° 0 mm 4 mps 756 mmHg 29%
    20:00 +30°C° 0 mm 6 mps 756 mmHg 31%
    21:00 +30°C° 0 mm 7 mps 756 mmHg 32%
    22:00 +29°C° 0 mm 7 mps 756 mmHg 33%
    23:00 +28°C° 0 mm 7 mps 756 mmHg 34%

    Day after tomorrow, 21 November, Tuesday

    Time Temperature Precipitation Wind Pressure Humidity
    00:00 +28°C° 0 mm 6 mps 756 mmHg 34%
    01:00 +27°C° 0 mm 6 mps 756 mmHg 36%
    02:00 +27°C° 0 mm 6 mps 756 mmHg 37%
    03:00 +27°C° 0 mm 5 mps 756 mmHg 38%
    04:00 +27°C° 0 mm 6 mps 756 mmHg 38%
    05:00 +27°C° 0 mm 6 mps 756 mmHg 37%
    06:00 +28°C° 0 mm 6 mps 756 mmHg 37%
    07:00 +29°C° 0 mm 6 mps 757 mmHg 34%
    08:00 +32°C° 0 mm 6 mps 757 mmHg 30%
    09:00 +34°C° 0 mm 6 mps 757 mmHg 27%
    10:00 +35°C° 0 mm 6 mps 756 mmHg 25%
    11:00 +35°C° 0 mm 6 mps 756 mmHg 23%
    12:00 +36°C° 0 mm 6 mps 755 mmHg 21%
    13:00 +36°C° 0 mm 5 mps 755 mmHg 21%
    14:00 +36°C° 0 mm 5 mps 754 mmHg 20%
    15:00 +36°C° 0 mm 4 mps 754 mmHg 19%
    16:00 +35°C° 0 mm 4 mps 754 mmHg 20%
    17:00 +34°C° 0 mm 3 mps 753 mmHg 21%
    18:00 +32°C° 0 mm 2 mps 753 mmHg 22%
    19:00 +31°C° 0 mm 3 mps 753 mmHg 21%
    20:00 +31°C° 0 mm 3 mps 754 mmHg 20%
    21:00 +30°C° 0 mm 4 mps 754 mmHg 20%
    22:00 +29°C° 0 mm 4 mps 753 mmHg 22%
    23:00 +28°C° 0 mm 4 mps 753 mmHg 23%

    22 November, Wednesday

    Time Temperature Precipitation Wind Pressure Humidity
    00:00 +27°C° 0 mm 4 mps 753 mmHg 25%
    01:00 +27°C° 0 mm 4 mps 753 mmHg 26%
    02:00 +26°C° 0 mm 4 mps 752 mmHg 28%
    03:00 +26°C° 0 mm 4 mps 752 mmHg 30%
    04:00 +26°C° 0 mm 4 mps 753 mmHg 31%
    05:00 +27°C° 0 mm 4 mps 753 mmHg 31%
    06:00 +27°C° 0 mm 4 mps 753 mmHg 32%
    07:00 +29°C° 0.2 mm 4 mps 754 mmHg 33%
    08:00 +30°C° 0.2 mm 5 mps 754 mmHg 35%
    09:00 +32°C° 0.2 mm 5 mps 754 mmHg 36%
    10:00 +30°C° 0.6 mm 5 mps 754 mmHg 42%
    11:00 +28°C° 0.6 mm 4 mps 754 mmHg 47%
    12:00 +27°C° 0.6 mm 4 mps 753 mmHg 53%
    13:00 +26°C° 1.9 mm 4 mps 753 mmHg 60%
    14:00 +25°C° 1.9 mm 5 mps 753 mmHg 67%
    15:00 +23°C° 1.9 mm 6 mps 753 mmHg 74%
    16:00 +23°C° 0.3 mm 5 mps 753 mmHg 72%
    17:00 +24°C° 0.3 mm 3 mps 753 mmHg 69%
    18:00 +24°C° 0.3 mm 2 mps 753 mmHg 66%
    19:00 +24°C° 0.1 mm 2 mps 753 mmHg 67%
    20:00 +24°C° 0.1 mm 2 mps 753 mmHg 67%
    21:00 +23°C° 0.1 mm 2 mps 753 mmHg 67%
    22:00 +21°C° 0.6 mm 2 mps 753 mmHg 73%
    23:00 +20°C° 0.6 mm 3 mps 753 mmHg 79%

    23 November, Thursday

    Time Temperature Precipitation Wind Pressure Humidity
    00:00 +19°C° 0.6 mm 3 mps 753 mmHg 85%
    01:00 +19°C° 1 mm 3 mps 752 mmHg 87%
    02:00 +18°C° 1 mm 3 mps 752 mmHg 89%
    03:00 +18°C° 1 mm 3 mps 752 mmHg 91%
    04:00 +18°C° 0.6 mm 3 mps 752 mmHg 90%
    05:00 +18°C° 0.6 mm 3 mps 753 mmHg 88%
    06:00 +18°C° 0.6 mm 3 mps 753 mmHg 87%
    07:00 +19°C° 0.1 mm 3 mps 753 mmHg 79%
    08:00 +20°C° 0.1 mm 3 mps 754 mmHg 72%
    09:00 +21°C° 0.1 mm 2 mps 754 mmHg 64%
    10:00 +22°C° 0 mm 3 mps 754 mmHg 59%
    11:00 +24°C° 0 mm 3 mps 753 mmHg 54%
    12:00 +25°C° 0 mm 3 mps 753 mmHg 48%
    13:00 +25°C° 0 mm 3 mps 753 mmHg 48%
    14:00 +25°C° 0 mm 3 mps 752 mmHg 47%
    15:00 +25°C° 0 mm 3 mps 752 mmHg 47%
    16:00 +24°C° 0 mm 3 mps 752 mmHg 51%
    17:00 +22°C° 0 mm 3 mps 753 mmHg 54%
    18:00 +21°C° 0 mm 2 mps 753 mmHg 58%
    19:00 +20°C° 0 mm 2 mps 753 mmHg 61%
    20:00 +19°C° 0 mm 2 mps 754 mmHg 65%
    21:00 +18°C° 0 mm 2 mps 754 mmHg 69%
    22:00 +18°C° 0 mm 2 mps 754 mmHg 73%
    23:00 +17°C° 0 mm 2 mps 754 mmHg 77%

    24 November, Friday

    Time Temperature Precipitation Wind Pressure Humidity
    00:00 +17°C° 0 mm 2 mps 754 mmHg 81%
    01:00 +16°C° 0 mm 2 mps 754 mmHg 83%
    02:00 +16°C° 0 mm 2 mps 754 mmHg 85%
    03:00 +16°C° 0 mm 2 mps 754 mmHg 86%
    04:00 +16°C° 0 mm 2 mps 754 mmHg 86%
    05:00 +17°C° 0 mm 3 mps 755 mmHg 85%
    06:00 +18°C° 0 mm 3 mps 755 mmHg 85%
    07:00 +19°C° 0 mm 3 mps 755 mmHg 80%
    08:00 +20°C° 0 mm 4 mps 756 mmHg 76%
    09:00 +21°C° 0 mm 4 mps 756 mmHg 72%
    10:00 +21°C° 0 mm 4 mps 755 mmHg 70%
    11:00 +22°C° 0 mm 5 mps 755 mmHg 69%
    12:00 +22°C° 0 mm 6 mps 755 mmHg 68%
    13:00 +22°C° 0 mm 6 mps 755 mmHg 67%
    14:00 +22°C° 0 mm 6 mps 755 mmHg 67%
    15:00 +22°C° 0 mm 6 mps 755 mmHg 67%
    16:00 +21°C° 0 mm 6 mps 755 mmHg 72%
    17:00 +20°C° 0 mm 6 mps 756 mmHg 76%
    18:00 +19°C° 0 mm 6 mps 756 mmHg 80%
    19:00 +17°C° 0 mm 6 mps 756 mmHg 81%
    20:00 +17°C° 0 mm 5 mps 756 mmHg 83%
    21:00 +17°C° 0 mm 5 mps 757 mmHg 84%
    22:00 +17°C° 0 mm 5 mps 756 mmHg 85%
    23:00 +17°C° 0 mm 5 mps 756 mmHg 85%
    Show more